Location: Korczew
(51.3586°N, 19.4491°E)
Time: 22:38:55
(UTC+00:00)

USA 59 Rocket - Pass Details

Date: 19 May 2025
Orbit: 373 x 1696 km, 63.3° (Epoch: 16 June)

Event Time Altitude Azimuth Distance (km) Brightness Sun altitude
Exits shadow 22:10:18 46° 244° (WSW) 547 -0.4 -18.4°
Maximum altitude 22:11:04 73° 316° (NW) 413 -0.8 -18.4°
Drops below altitude 10° 22:14:01 10° 42° (NE) 1,391 2.4 -18.5°
Sets 22:15:59 0° 44° (NE) 2,257 3.6 -18.5°
